GW5686 Weather Reports


time (UTC)temp
F
wind
direction
speed
knots
gust
knots
rain 1hr
in
rain 24hr
in
rain mn
in
humidity
%
barometer
mb
20260505183910 57 193 6.1 8.7 0.00 0.00 0.00 75 1004.6
20260505183407 56 149 5.2 8.7 0.00 0.00 0.00 77 1004.7
20260505182903 56 176 4.3 9.6 0.00 0.00 0.00 76 1004.6
20260505182400 57 145 5.2 11.3 0.00 0.00 0.00 75 1004.5
20260505181857 57 140 4.3 9.6 0.00 0.00 0.00 75 1004.8
20260505181354 58 232 7.0 13.0 0.00 0.00 0.00 74 1004.9
20260505180851 58 256 4.3 12.2 0.00 0.00 0.00 74 1005.0
20260505180347 57 303 4.3 12.2 0.00 0.00 0.00 76 1005.0
20260505175844 58 242 5.2 13.9 0.00 0.00 0.00 74 1005.0
20260505175340 57 244 6.1 14.8 0.00 0.00 0.00 74 1005.2
20260505174836 57 230 7.0 9.6 0.00 0.00 0.00 74 1005.1
20260505174334 57 202 2.6 14.8 0.00 0.00 0.00 75 1005.5
20260505173830 56 234 7.8 13.9 0.00 0.00 0.00 75 1005.3
20260505173326 56 206 7.8 9.6 0.00 0.00 0.00 75 1005.8
20260505172824 57 250 6.1 9.6 0.00 0.00 0.00 74 1005.9
20260505172322 57 142 3.5 8.7 0.00 0.00 0.00 75 1005.7
20260505171815 58 122 2.6 20.9 0.00 0.00 0.00 72 1005.8
20260505171312 58 161 6.1 12.2 0.00 0.00 0.00 72 1005.9
20260505170808 58 45 3.5 13.9 0.00 0.00 0.00 73 1005.8
20260505170306 58 132 6.1 13.9 0.00 0.00 0.00 73 1006.0
20260505165801 58 78 5.2 9.6 0.00 0.00 0.00 73 1006.1
20260505165257 58 270 6.1 12.2 0.00 0.00 0.00 72 1006.4
20260505164753 58 245 5.2 11.3 0.00 0.00 0.00 73 1006.0
20260505164250 58 147 8.7 12.2 0.00 0.00 0.00 73 1006.0
20260505163748 57 240 6.1 18.2 0.00 0.00 0.00 73 1005.9
20260505163246 58 228 7.0 12.2 0.00 0.00 0.00 72 1005.9
20260505162743 58 50 4.3 8.7 0.00 0.00 0.00 72 1005.7
20260505162240 58 246 9.6 13.0 0.00 0.00 0.00 73 1006.3
20260505161737 58 196 10.4 16.5 0.00 0.00 0.00 72 1006.3
20260505161235 59 234 5.2 11.3 0.00 0.00 0.00 70 1006.0
20260505160732 60 78 9.6 15.6 0.00 0.00 0.00 69 1006.4
20260505160230 60 314 4.3 11.3 0.00 0.00 0.00 69 1006.4
20260505153209 60 187 5.2 7.0 0.00 0.00 0.00 68 1006.2
20260505152706 60 229 5.2 11.3 0.00 0.00 0.00 69 1006.4
20260505152202 60 43 3.5 7.8 0.00 0.00 0.00 68 1006.3
20260505151657 60 136 3.5 6.1 0.00 0.00 0.00 68 1006.2
20260505151156 59 198 5.2 12.2 0.00 0.00 0.00 70 1006.3
20260505150651 59 167 7.0 9.6 0.00 0.00 0.00 69 1006.5
20260505150149 60 339 6.1 12.2 0.00 0.00 0.00 69 1006.3
20260505140622 59 127 3.5 7.0 0.00 0.00 0.00 69 1006.4
20260505140119 58 209 3.5 6.1 0.00 0.00 0.00 71 1006.4
20260505125036 56 177 1.7 6.1 0.00 0.00 0.00 71 1006.5
20260505124532 56 231 2.6 6.1 0.00 0.00 0.00 71 1006.5
20260505124028 56 271 1.7 6.1 0.00 0.00 0.00 71 1006.3
20260505123525 56 214 3.5 7.0 0.00 0.00 0.00 72 1006.2
20260505123021 56 137 2.6 7.8 0.00 0.00 0.00 73 1006.4
20260505122518 55 122 1.7 11.3 0.00 0.00 0.00 73 1006.3
20260505122015 55 199 4.3 7.0 0.00 0.00 0.00 73 1006.3
20260505121512 55 225 3.5 5.2 0.00 0.00 0.00 74 1006.3
20260505121009 54 236 2.6 5.2 0.00 0.00 0.00 74 1006.4
20260505120505 54 186 2.6 6.1 0.00 0.00 0.00 75 1006.2
20260505120005 53 127 1.7 3.5 0.00 0.00 0.00 76 1006.3
20260505115500 53 177 3.5 6.1 0.00 0.00 0.00 77 1006.2
20260505114958 53 186 2.6 3.5 0.00 0.00 0.00 77 1006.5
20260505114454 52 189 0.9 2.6 0.00 0.00 0.00 79 1006.2
20260505113951 52 125 1.7 5.2 0.00 0.00 0.00 78 1006.4
20260505113447 51 355 1.7 5.2 0.00 0.00 0.00 80 1006.3
20260505112943 51 195 1.7 5.2 0.00 0.00 0.00 81 1006.4
20260505112441 50 176 3.5 6.1 0.00 0.00 0.00 82 1006.5
20260505111937 50 238 3.5 5.2 0.00 0.00 0.00 83 1006.5
20260505111432 49 146 1.7 2.6 0.00 0.00 0.00 84 1006.4
20260505110929 49 201 0.9 3.5 0.00 0.00 0.00 84 1006.5
20260505110425 49 136 0.9 3.5 0.00 0.00 0.00 85 1006.8
20260505101856 46 208 1.7 3.5 0.00 0.00 0.00 89 1006.7
20260505101351 46 149 3.5 5.2 0.00 0.00 0.00 90 1006.7
20260505100847 45 147 0.9 2.6 0.00 0.00 0.00 90 1006.5
20260505100344 45 179 2.6 3.5 0.00 0.00 0.00 91 1006.5
20260505095839 45 297 1.7 2.6 0.00 0.00 0.00 91 1006.4
20260505095337 45 245 1.7 2.6 0.00 0.00 0.00 92 1006.6
20260505094833 44 143 1.7 1.7 0.00 0.00 0.00 92 1006.4
20260505094330 44 145 0.9 1.7 0.00 0.00 0.00 92 1006.1
20260505093825 44 238 0.9 2.6 0.00 0.00 0.00 93 1006.4
20260505093324 44 166 0.0 0.9 0.00 0.00 0.00 93 1006.4
20260505092820 43 166 0.0 3.5 0.00 0.00 0.00 94 1006.2
20260505092319 43 138 0.9 1.7 0.00 0.00 0.00 94 1006.5
20260505091815 42 171 0.9 0.9 0.00 0.00 0.00 93 1006.4
20260505091314 42 142 0.9 0.9 0.00 0.00 0.00 93 1006.2
20260505090811 43 160 0.9 0.9 0.00 0.00 0.00 93 1006.3
20260505090309 43 178 0.0 0.0 0.00 0.00 0.00 93 1006.2
20260505085806 43 147 0.9 0.9 0.00 0.00 0.00 93 1006.3
20260505085305 43 153 0.9 0.9 0.00 0.00 0.00 92 1006.4
20260505084801 43 189 0.0 0.9 0.00 0.00 0.00 93 1006.4
20260505084300 43 167 0.9 2.6 0.00 0.00 0.00 93 1006.1
20260505083756 43 153 0.9 1.7 0.00 0.00 0.00 93 1006.3
20260505083253 42 159 0.9 1.7 0.00 0.00 0.00 93 1006.1
20260505082749 42 197 0.0 0.0 0.00 0.00 0.00 93 1006.2
20260505082247 42 154 0.0 0.0 0.00 0.00 0.00 93 1006.1
20260505081743 42 164 0.0 0.0 0.00 0.00 0.00 93 1006.2
20260505081240 42 160 0.0 0.0 0.00 0.00 0.00 93 1006.0
20260505080737 42 152 0.0 0.0 0.00 0.00 0.00 92 1006.3
20260505080232 42 150 0.0 0.0 0.00 0.00 0.00 92 1006.2
20260505075728 42 149 0.0 0.0 0.00 0.00 0.00 92 1006.2
20260505075226 42 226 0.0 0.0 0.00 0.00 0.00 91 1006.1
20260505074723 43 227 0.0 0.0 0.00 0.00 0.00 91 1006.1
20260505074220 43 227 0.0 0.9 0.00 0.00 0.00 91 1006.2
20260505073718 43 156 0.9 0.9 0.00 0.00 0.00 91 1006.0
20260505073215 43 184 0.0 0.9 0.00 0.00 0.00 90 1006.2
20260505072711 43 158 0.0 0.0 0.00 0.00 0.00 90 1006.2
20260505072208 43 154 0.0 0.0 0.00 0.00 0.00 89 1006.1
20260505071703 44 147 0.0 0.0 0.00 0.00 0.00 89 1006.2
20260505071201 44 169 0.0 0.9 0.00 0.00 0.00 88 1006.3
20260505070658 44 162 0.9 1.7 0.00 0.00 0.00 89 1006.2
20260505070154 44 129 0.9 1.7 0.00 0.00 0.00 89 1005.8
20260505065650 44 139 0.0 1.7 0.00 0.00 0.00 89 1006.0
20260505065147 44 153 0.0 1.7 0.00 0.00 0.00 89 1006.2
20260505064644 44 201 0.0 1.7 0.00 0.00 0.00 88 1006.1
20260505064142 44 235 0.9 3.5 0.00 0.00 0.00 89 1005.9
20260505063639 44 144 0.0 0.9 0.00 0.00 0.00 88 1006.0
20260505063135 44 202 0.0 1.7 0.00 0.00 0.00 88 1006.2
20260505062632 44 255 0.9 2.6 0.00 0.00 0.00 88 1006.1
20260505062129 44 132 1.7 1.7 0.00 0.00 0.00 88 1006.0
20260505061626 44 205 0.9 1.7 0.00 0.00 0.00 89 1005.9
20260505061124 44 179 0.9 1.7 0.00 0.00 0.00 89 1005.9
20260505060622 44 113 1.7 1.7 0.00 0.00 0.00 89 1005.8
20260505060118 44 201 0.0 3.5 0.00 0.00 0.00 89 1005.7
20260505055613 44 144 0.9 1.7 0.00 0.00 0.00 89 1005.7
20260505055110 44 183 0.9 1.7 0.00 0.00 0.00 89 1005.8
20260505054608 44 160 0.9 2.6 0.00 0.00 0.00 89 1005.9
20260505054106 44 142 1.7 1.7 0.00 0.00 0.00 88 1005.7
20260505053602 45 136 0.9 1.7 0.00 0.00 0.00 87 1005.8
20260505053059 45 141 1.7 1.7 0.00 0.00 0.00 87 1005.5
20260505052556 45 173 0.0 1.7 0.00 0.00 0.00 87 1006.0
20260505052054 45 180 0.9 2.6 0.00 0.00 0.00 87 1005.8
20260505051550 45 171 0.9 2.6 0.00 0.00 0.00 86 1005.5
20260505051048 45 234 0.9 1.7 0.00 0.00 0.00 87 1005.8
20260505050546 45 153 0.9 1.7 0.00 0.00 0.00 86 1005.6
20260505041514 47 284 0.0 1.7 0.00 0.00 0.00 83 1005.9
20260505041012 47 165 2.6 3.5 0.00 0.00 0.00 84 1005.8
20260505040509 46 112 1.7 2.6 0.00 0.00 0.00 85 1005.5
20260505040006 46 158 0.9 1.7 0.00 0.00 0.00 86 1005.4
20260505035501 46 160 0.9 1.7 0.00 0.00 0.00 85 1005.6
20260505034959 46 145 0.9 0.9 0.00 0.00 0.00 85 1005.6
20260505034455 46 214 0.9 1.7 0.00 0.00 0.00 86 1005.7
20260505033952 46 155 0.0 0.0 0.00 0.00 0.00 85 1005.5
20260505033449 46 132 0.0 0.0 0.00 0.00 0.00 84 1005.3
20260505032947 46 110 0.0 0.0 0.00 0.00 0.00 83 1005.5
20260505032444 46 207 0.0 0.9 0.00 0.00 0.00 83 1005.5
20260505031940 46 135 0.0 0.0 0.00 0.00 0.00 84 1005.3
20260505031438 46 111 0.9 1.7 0.00 0.00 0.00 83 1005.3
20260505030934 47 84 0.0 0.0 0.00 0.00 0.00 82 1005.4
20260505030430 47 183 0.0 0.0 0.00 0.00 0.00 82 1005.7
20260505025926 47 222 0.9 0.9 0.00 0.00 0.00 82 1005.5
20260505025423 47 192 0.0 0.0 0.00 0.00 0.00 82 1005.5
20260505024922 47 137 0.9 0.9 0.00 0.00 0.00 82 1005.4
20260505024419 46 168 0.0 0.0 0.00 0.00 0.00 83 1005.6
20260505023916 46 142 0.0 0.0 0.00 0.00 0.00 83 1005.7
20260505023413 46 104 0.0 0.0 0.00 0.00 0.00 83 1005.7
20260505022910 46 152 1.7 1.7 0.00 0.00 0.00 83 1005.5
20260505022408 46 110 0.0 0.9 0.00 0.00 0.00 83 1005.4
20260505021905 46 235 0.0 0.9 0.00 0.00 0.00 84 1005.7
20260505021401 46 155 0.9 0.9 0.00 0.00 0.00 85 1005.3
20260505020857 46 173 0.0 0.0 0.00 0.00 0.00 85 1005.5
20260505020353 46 126 0.0 0.0 0.00 0.00 0.00 83 1005.4
20260505015850 46 139 0.0 0.0 0.00 0.00 0.00 82 1005.3
20260505015347 47 137 0.0 0.0 0.00 0.00 0.00 82 1005.3
20260505014844 47 152 0.0 0.0 0.00 0.00 0.00 81 1005.6
20260505014341 47 192 0.0 3.5 0.00 0.00 0.00 81 1005.3
20260505013837 47 244 0.9 1.7 0.00 0.00 0.00 81 1005.3
20260505013334 47 165 1.7 2.6 0.00 0.00 0.00 81 1005.3
20260505012833 47 121 0.0 1.7 0.00 0.00 0.00 81 1005.2
20260505012331 47 223 0.0 0.0 0.00 0.00 0.00 81 1005.2
20260505011826 47 164 0.9 0.9 0.00 0.00 0.00 80 1004.9
20260505011323 47 152 0.9 2.6 0.00 0.00 0.00 80 1005.0
20260505010819 47 132 1.7 2.6 0.00 0.00 0.00 80 1005.1
20260505010315 47 132 0.9 2.6 0.00 0.00 0.00 80 1004.8
20260505005812 47 147 1.7 5.2 0.00 0.00 0.00 81 1004.7
20260505005309 47 155 0.9 0.9 0.00 0.00 0.00 82 1004.7
20260505004806 47 220 0.0 0.9 0.00 0.00 0.00 80 1004.6
20260505004302 47 174 0.0 1.7 0.00 0.00 0.00 81 1004.5
20260505003800 47 135 0.9 2.6 0.00 0.00 0.00 80 1004.5
20260505003257 47 199 0.0 0.0 0.00 0.00 0.00 79 1004.5
20260505002753 47 163 0.0 0.0 0.00 0.00 0.00 79 1004.3
20260505002251 48 175 0.9 0.9 0.00 0.00 0.00 78 1004.2
20260505001748 49 219 0.0 0.0 0.00 0.00 0.00 76 1003.9
20260505001245 49 208 0.0 0.0 0.00 0.00 0.00 76 1003.9
20260505000742 49 212 0.0 0.0 0.00 0.00 0.00 75 1003.7
20260505000240 50 207 0.0 0.9 0.00 0.00 0.00 75 1003.5
20260504235736 50 264 0.0 0.0 0.00 0.00 0.00 74 1003.6
20260504235233 50 102 0.0 0.0 0.00 0.00 0.00 73 1003.5
20260504234730 51 259 0.0 0.0 0.00 0.00 0.00 72 1003.3
20260504234227 51 135 0.0 1.7 0.00 0.00 0.00 71 1003.3
20260504233724 51 190 0.9 1.7 0.00 0.00 0.00 71 1002.9
20260504233219 51 137 0.9 1.7 0.00 0.00 0.00 71 1003.1
20260504232717 51 236 0.9 2.6 0.00 0.00 0.00 71 1003.0
20260504232214 51 189 1.7 2.6 0.00 0.00 0.00 70 1002.9
20260504231710 52 158 2.6 2.6 0.00 0.00 0.00 70 1002.7
20260504231207 52 202 3.5 3.5 0.00 0.00 0.00 69 1002.5
20260504230703 52 143 0.9 2.6 0.00 0.00 0.00 69 1002.6
20260504230202 53 242 2.6 3.5 0.00 0.00 0.00 68 1002.5
20260504225700 53 218 1.7 3.5 0.00 0.00 0.00 67 1002.5
20260504225155 54 209 1.7 3.5 0.00 0.00 0.00 67 1002.2
20260504224653 54 195 0.9 0.9 0.00 0.00 0.00 67 1002.3
20260504224149 55 165 0.9 1.7 0.00 0.00 0.00 66 1002.1
20260504223647 55 179 2.6 3.5 0.00 0.00 0.00 65 1002.0
20260504223142 55 202 1.7 3.5 0.00 0.00 0.00 65 1001.7
20260504222639 55 136 1.7 3.5 0.00 0.00 0.00 67 1001.9
20260504222136 55 115 0.9 3.5 0.00 0.00 0.00 66 1001.6
20260504221634 56 76 3.5 3.5 0.00 0.00 0.00 65 1001.8
20260504221131 56 238 0.9 3.5 0.00 0.00 0.00 65 1001.5
20260504220627 56 166 1.7 2.6 0.00 0.00 0.00 65 1001.6
20260504220125 56 151 0.9 1.7 0.00 0.00 0.00 66 1001.8
20260504215620 56 114 2.6 5.2 0.00 0.00 0.00 66 1001.6
20260504215118 55 148 3.5 3.5 0.00 0.00 0.00 68 1001.5
20260504214614 56 180 3.5 5.2 0.00 0.00 0.00 67 1001.6
20260504214110 56 213 3.5 5.2 0.00 0.00 0.00 66 1001.5
20260504213607 59 119 6.1 7.8 0.00 0.00 0.00 61 1001.3
20260504213104 60 255 3.5 6.1 0.00 0.00 0.00 58 1001.5
20260504212600 62 179 0.9 3.5 0.00 0.00 0.00 55 1001.1
20260504212057 62 335 0.9 7.0 0.00 0.00 0.00 54 1001.2
20260504211554 62 44 2.6 2.6 0.00 0.00 0.00 55 1001.3
20260504211051 62 215 5.2 7.8 0.00 0.00 0.00 52 1001.5
20260504210548 62 341 0.9 2.6 0.00 0.00 0.00 54 1001.1
20260504210045 62 61 0.9 2.6 0.00 0.00 0.00 54 1001.2
20260504205543 62 250 3.5 7.8 0.00 0.00 0.00 54 1001.2
20260504205040 62 255 0.9 7.0 0.00 0.00 0.00 54 1001.1
20260504204538 62 319 1.7 7.0 0.00 0.00 0.00 53 1001.1
20260504204037 62 307 3.5 7.0 0.00 0.00 0.00 54 1001.0
20260504203534 62 38 2.6 6.1 0.00 0.00 0.00 54 1001.4
20260504203032 62 74 0.9 2.6 0.00 0.00 0.00 54 1001.3
20260504202527 62 275 3.5 5.2 0.00 0.00 0.00 54 1001.2
20260504202024 61 11 1.7 2.6 0.00 0.00 0.00 54 1001.2
20260504201521 62 309 1.7 7.0 0.00 0.00 0.00 53 1001.3
20260504201019 60 218 1.7 9.6 0.00 0.00 0.00 55 1001.3
20260504200515 61 108 1.7 3.5 0.00 0.00 0.00 56 1001.4
20260504200012 60 284 1.7 5.2 0.00 0.00 0.00 58 1001.5
20260504195508 60 222 6.1 7.8 0.00 0.00 0.00 58 1001.1
20260504195005 60 14 2.6 7.0 0.00 0.00 0.00 57 1001.5
20260504194501 60 310 0.9 3.5 0.00 0.00 0.00 59 1001.5
20260504193957 60 349 3.5 6.1 0.00 0.00 0.00 59 1001.3
20260504193454 59 138 2.6 7.8 0.00 0.00 0.00 60 1001.3
20260504192953 58 259 1.7 5.2 0.00 0.00 0.00 61 1001.5
20260504192449 57 149 2.6 3.5 0.00 0.00 0.00 63 1001.7
20260504191949 55 144 1.7 3.5 0.00 0.00 0.00 65 1001.4
20260504191446 55 184 2.6 5.2 0.00 0.00 0.00 65 1001.6
20260504190941 55 124 0.9 6.1 0.00 0.00 0.00 67 1001.7
20260504190437 54 109 1.7 2.6 0.00 0.00 0.00 71 1001.9
20260504185934 53 221 0.0 6.1 0.00 0.00 0.00 69 1001.9
20260504185431 53 292 1.7 3.5 0.00 0.00 0.00 71 1002.2
20260504184927 53 135 1.7 3.5 0.00 0.00 0.00 72 1002.2
20260504184423 52 155 0.9 2.6 0.00 0.00 0.00 74 1002.2